STARLINK-34630

Last updated on Tue Aug 26 2025 00:02:05 GMT+0000 (Coordinated Universal Time)

1 64948U 25158S 25237.61857707 .00031612 00000+0 80894-3 0 9996 2 64948 97.6015 100.2096 0001800 86.8645 273.2806 15.39360117 5813

Satellite not in orbit

STARLINK-34630